GW2669 Weather Reports


Display with metric or nautical units.
time (UTC)temp
F
wind
direction
speed
MPH
gust
MPH
rain 1hr
in
rain 24hr
in
rain mn
in
humidity
%
barometer
mb
20260509063053 64 240 3.0 5.0 0.00 0.00 0.00 37 1011.0
20260509061553 64 261 3.0 7.0 0.00 0.00 0.00 38 1010.8
20260509060051 65 283 2.0 6.0 0.00 0.00 0.00 38 1010.8
20260509054554 65 284 3.0 8.0 0.00 0.00 0.00 37 1011.1
20260509053058 66 275 3.0 6.0 0.00 0.00 0.00 37 1011.3
20260509051600 66 264 4.0 8.0 0.00 0.00 0.00 37 1011.2
20260509050054 66 258 3.0 9.0 0.00 0.00 0.00 38 1011.5
20260509044557 65 249 3.0 5.0 0.00 0.00 0.00 38 1011.5
20260509043053 66 242 3.0 5.0 0.00 0.00 0.00 38 1011.6
20260509041555 66 243 4.0 7.0 0.00 0.00 0.00 38 1011.5
20260509040057 67 225 2.0 7.0 0.00 0.00 0.00 37 1011.5
20260509034555 68 235 4.0 7.0 0.00 0.00 0.00 36 1011.5
20260509033101 68 234 2.0 7.0 0.00 0.00 0.00 36 1011.4
20260509031553 69 250 6.0 9.0 0.00 0.00 0.00 35 1011.1
20260509030054 70 235 4.0 7.0 0.00 0.00 0.00 35 1011.1
20260509024547 70 226 2.0 7.0 0.00 0.00 0.00 37 1011.1
20260509023048 72 169 3.0 7.0 0.00 0.00 0.00 34 1011.1
20260509021552 74 220 5.0 8.0 0.00 0.00 0.00 28 1011.0
20260509020054 75 229 4.0 7.0 0.00 0.00 0.00 26 1010.7
20260509014547 77 263 2.0 4.0 0.00 0.00 0.00 24 1010.3
20260509013053 79 269 2.0 6.0 0.00 0.00 0.00 23 1010.2
20260509011549 80 233 5.0 12.0 0.00 0.00 0.00 23 1010.0
20260509010051 79 253 6.0 11.0 0.00 0.00 0.00 24 1010.0
20260509004547 79 240 9.0 15.0 0.00 0.00 0.00 24 1010.0
20260509003047 79 230 11.0 14.0 0.00 0.00 0.00 25 1010.0
20260509001546 80 233 11.0 15.0 0.00 0.00 0.00 25 1010.4
20260509000049 80 221 11.0 16.0 0.00 0.00 0.00 24 1010.5
20260508234548 81 230 9.0 17.0 0.00 0.00 0.00 25 1010.4
20260508233101 81 227 5.0 13.0 0.00 0.00 0.00 28 1010.2
20260508231550 80 163 3.0 12.0 0.00 0.00 0.00 39 1010.3
20260508230055 80 156 4.0 8.0 0.00 0.00 0.00 39 1010.2
20260508224607 80 205 3.0 7.0 0.00 0.00 0.00 39 1009.9
20260508223048 80 154 1.0 7.0 0.00 0.00 0.00 36 1009.6
20260508221551 80 0 0.0 2.0 0.00 0.00 0.00 37 1009.6
20260508220050 80 128 2.0 8.0 0.00 0.00 0.00 36 1009.4
20260508214551 80 115 3.0 8.0 0.00 0.00 0.00 39 1009.7
20260508213049 79 126 1.0 3.0 0.00 0.00 0.00 45 1010.0
20260508211552 79 79 0.0 6.0 0.00 0.00 0.00 46 1010.2
20260508210054 78 74 1.0 3.0 0.00 0.00 0.00 47 1010.2
20260508204551 79 82 4.0 9.0 0.00 0.00 0.00 47 1010.4
20260508203056 80 50 6.0 13.0 0.00 0.00 0.00 38 1010.5
20260508201551 79 78 7.0 15.0 0.00 0.00 0.00 45 1010.2
20260508200104 78 58 8.0 13.0 0.00 0.00 0.00 47 1010.6
20260508194558 77 51 4.0 12.0 0.00 0.00 0.00 51 1010.7
20260508193048 77 48 5.0 9.0 0.00 0.00 0.00 50 1011.0
20260508191554 76 59 6.0 9.0 0.00 0.00 0.00 56 1011.2
20260508190056 75 337 5.0 10.0 0.00 0.00 0.00 55 1011.4
20260508184552 73 60 3.0 8.0 0.00 0.00 0.00 58 1011.5
20260508183049 73 32 5.0 13.0 0.00 0.00 0.00 62 1011.8
20260508181553 72 57 4.0 10.0 0.00 0.00 0.00 61 1012.0
20260508180048 72 29 5.0 11.0 0.00 0.00 0.00 63 1012.3
20260508174605 70 102 4.0 10.0 0.00 0.00 0.00 65 1012.7
20260508173049 69 0 1.0 9.0 0.00 0.00 0.00 65 1012.8
20260508171548 68 42 3.0 10.0 0.00 0.00 0.00 69 1013.0
20260508170054 67 57 6.0 10.0 0.00 0.00 0.00 69 1013.1
20260508164551 66 67 6.0 13.0 0.00 0.00 0.00 70 1013.3
20260508163048 65 59 7.0 13.0 0.00 0.00 0.00 73 1013.3
20260508161553 65 16 5.0 11.0 0.00 0.00 0.00 73 1013.5
20260508160052 64 33 5.0 11.0 0.00 0.00 0.00 73 1013.8
20260508154552 63 349 4.0 9.0 0.00 0.00 0.00 75 1013.7
20260508153050 61 35 4.0 10.0 0.00 0.00 0.00 78 1013.8
20260508151556 60 342 5.0 10.0 0.00 0.00 0.00 79 1014.0
20260508150051 60 338 5.0 11.0 0.00 0.00 0.00 80 1013.9
20260508144552 60 336 8.0 12.0 0.00 0.00 0.00 79 1014.1
20260508143055 60 333 7.0 13.0 0.00 0.00 0.00 79 1014.0
20260508141551 60 315 7.0 11.0 0.00 0.00 0.00 78 1014.0
20260508140058 60 324 5.0 9.0 0.00 0.00 0.00 77 1013.8
20260508134553 59 309 4.0 6.0 0.00 0.00 0.00 79 1013.7
20260508133055 57 306 0.0 4.0 0.00 0.00 0.00 80 1013.4
20260508131556 55 318 2.0 3.0 0.00 0.00 0.00 79 1013.4
20260508130103 54 0 0.0 0.0 0.00 0.00 0.00 79 1013.3
20260508124555 52 0 0.0 0.0 0.00 0.00 0.00 79 1013.2
20260508123056 52 0 0.0 0.0 0.00 0.00 0.00 78 1013.2
20260508121548 51 0 0.0 0.0 0.00 0.00 0.00 78 1012.9
20260508120052 51 0 0.0 0.0 0.00 0.00 0.00 77 1012.6
20260508114553 52 0 0.0 0.0 0.00 0.00 0.00 79 1012.5
20260508113051 51 0 0.0 0.0 0.00 0.00 0.00 79 1012.5
20260508111552 52 0 0.0 0.0 0.00 0.00 0.00 78 1012.7
20260508110050 53 0 0.0 2.0 0.00 0.00 0.00 78 1012.9
20260508104600 53 0 0.0 0.0 0.00 0.00 0.00 75 1012.9
20260508103052 54 0 0.0 0.0 0.00 0.00 0.00 76 1012.8
20260508101551 54 0 0.0 0.0 0.00 0.00 0.00 75 1013.0
20260508100052 55 0 0.0 1.0 0.00 0.00 0.00 75 1012.9
20260508094551 54 280 1.0 2.0 0.00 0.00 0.00 75 1013.4
20260508093054 54 0 0.0 0.0 0.00 0.00 0.00 76 1013.6
20260508091601 54 0 0.0 0.0 0.00 0.00 0.00 75 1013.4
20260508090108 54 0 0.0 0.0 0.00 0.00 0.00 77 1013.5
20260508084551 54 0 0.0 0.0 0.00 0.00 0.00 77 1013.5
20260508083052 55 22 1.0 3.0 0.00 0.00 0.00 76 1013.3
20260508081607 55 41 2.0 4.0 0.00 0.00 0.00 76 1013.3
20260508080055 55 350 1.0 3.0 0.00 0.00 0.00 75 1013.7
20260508074552 55 350 1.0 2.0 0.00 0.00 0.00 75 1013.6
20260508073104 55 0 0.0 1.0 0.00 0.00 0.00 76 1013.5
20260508071608 56 348 0.0 1.0 0.00 0.00 0.00 73 1013.7
20260508070059 57 0 0.0 0.0 0.00 0.00 0.00 73 1013.6
20260508064552 56 0 0.0 0.0 0.00 0.00 0.00 74 1013.7